Location: Celina Division
(33.3022°N, 96.7580°W)
Time: 16:16:46
(UTC+00:00)

Cosmos 1812 - Pass Details

Date: 30 June 2022
Orbit: 508 x 515 km, 82.5° (Epoch: 14 August)

Event Time Altitude Azimuth Distance (km) Brightness Sun altitude
Rises 07:19:22 0° 17° (NNE) 2,633 7.4 -32.4°
Reaches altitude 10° 07:22:27 10° 44° (NE) 1,739 6.0 -32.2°
Enters shadow 07:23:17 12° 56° (NE) 1,597 5.7 -32.2°
